Location: ???????
(55.4362°N, 38.1183°E)
Time: 18:40:54
(UTC+00:00)

Cosmos 2278 Rocket - Pass Details

Date: 01 November 2021
Orbit: 841 x 845 km, 71.0° (Epoch: 28 November)

Event Time Altitude Azimuth Distance (km) Brightness Sun altitude
Rises 17:33:03 0° 320° (NW) 3,417 6.2 -31.8°
Reaches altitude 10° 17:36:08 10° 304° (NW) 2,476 5.5 -32.2°
Maximum altitude 17:40:04 20° 259° (W) 1,877 4.5 -32.7°
Drops below altitude 10° 17:44:00 10° 215° (SW) 2,462 4.7 -33.2°
Enters shadow 17:44:05 10° 214° (SW) 2,487 4.7 -33.2°
